DW9840 Weather Reports


Display with metric or nautical units.
time (UTC)temp
F
wind
direction
speed
MPH
gust
MPH
rain 1hr
in
rain 24hr
in
rain mn
in
humidity
%
barometer
mb
20260503013007 58 205 0.0 3.0 0.00 0.00 0.00 43 1010.8
20260503011545 59 163 0.0 1.0 0.00 0.00 0.00 44 1010.8
20260503010041 59 184 0.0 2.0 0.00 0.00 0.00 49 1010.7
20260503004519 59 172 0.0 1.0 0.00 0.00 0.00 47 1010.8
20260503003015 59 238 0.0 3.0 0.00 0.00 0.00 52 1010.8
20260503001553 60 250 0.0 1.0 0.00 0.00 0.00 56 1010.8
20260503000050 60 270 0.0 2.0 0.00 0.00 0.00 59 1010.9
20260502234539 61 271 0.0 5.0 0.00 0.00 0.00 59 1010.9
20260502233023 62 203 0.0 3.0 0.00 0.00 0.00 57 1011.0
20260502231619 62 219 0.0 6.0 0.00 0.00 0.00 57 1011.0
20260502230056 62 217 0.0 2.0 0.00 0.00 0.00 56 1011.3
20260502224552 62 218 0.0 5.0 0.00 0.00 0.00 54 1011.4
20260502223030 62 225 0.0 2.0 0.00 0.00 0.00 50 1011.6
20260502221526 62 267 0.0 9.0 0.00 0.00 0.00 51 1011.7
20260502220004 63 204 0.0 2.0 0.00 0.00 0.00 50 1011.8
20260502214601 63 208 0.0 1.0 0.00 0.00 0.00 46 1011.9
20260502213038 62 203 0.0 2.0 0.00 0.00 0.00 46 1011.9
20260502211537 62 249 0.0 2.0 0.00 0.00 0.00 47 1012.1
20260502210023 63 252 0.0 3.0 0.00 0.00 0.00 48 1012.2
20260502204511 63 269 0.0 0.0 0.00 0.00 0.00 51 1012.3
20260502203047 63 222 0.0 0.0 0.00 0.00 0.00 56 1012.3
20260502201547 64 162 0.0 2.0 0.00 0.00 0.00 56 1012.4
20260502200020 64 250 0.0 1.0 0.00 0.00 0.00 52 1012.5
20260502194515 64 152 0.0 1.0 0.00 0.00 0.00 53 1012.5
20260502193055 63 214 0.0 1.0 0.00 0.00 0.00 54 1012.6
20260502191550 63 243 0.0 0.0 0.00 0.00 0.00 52 1012.8
20260502190034 63 203 0.0 2.0 0.00 0.00 0.00 49 1012.7
20260502184528 62 281 0.0 2.0 0.00 0.00 0.00 31 1012.7
20260502183024 62 219 0.0 0.0 0.00 0.00 0.00 21 1012.6
20260502181521 62 293 0.0 0.0 0.00 0.00 0.00 10 1012.6
20260502163014 60 124 0.0 0.0 0.00 0.00 0.00 3 1012.7
20260502161509 60 124 0.0 1.0 0.00 0.00 0.00 3 1012.6
20260502151517 58 114 0.0 0.0 0.00 0.00 0.00 3 1012.1
20260502123052 57 43 0.0 0.0 0.00 0.00 0.00 3 1011.4
20260502121551 57 42 0.0 0.0 0.00 0.00 0.00 3 1011.3
20260502114519 56 160 0.0 0.0 0.00 0.00 0.00 3 1011.4
20260502113057 56 208 0.0 0.0 0.00 0.00 0.00 3 1011.3
20260502111604 56 155 0.0 0.0 0.00 0.00 0.00 3 1011.2
20260502110037 56 124 0.0 0.0 0.00 0.00 0.00 3 1011.3
20260502104532 56 190 0.0 0.0 0.00 0.00 0.00 3 1011.4
20260502103027 56 195 0.0 0.0 0.00 0.00 0.00 3 1011.4
20260502101524 56 72 0.0 0.0 0.00 0.00 0.00 3 1011.4
20260502091507 56 141 0.0 0.0 0.00 0.00 0.00 3 1011.9
20260502071528 55 108 0.0 0.0 0.00 0.00 0.00 3 1012.1
20260502070003 55 208 0.0 3.0 0.00 0.00 0.00 3 1012.1
20260502064601 55 222 0.0 1.0 0.00 0.00 0.00 3 1012.0
20260502063037 55 173 0.0 0.0 0.00 0.00 0.00 3 1012.1
20260502061530 55 217 0.0 0.0 0.00 0.00 0.00 3 1012.1
20260502060008 56 203 0.0 0.0 0.00 0.00 0.00 3 1012.1
20260502054503 56 224 0.0 0.0 0.00 0.00 0.00 3 1012.2
20260502053100 56 223 0.0 0.0 0.00 0.00 0.00 3 1012.2
20260502051538 57 208 0.0 0.0 0.00 0.00 0.00 3 1012.3
20260502050034 57 204 0.0 0.0 0.00 0.00 0.00 3 1012.3
20260502044511 58 127 0.0 0.0 0.00 0.00 0.00 3 1012.3
20260502043008 58 214 0.0 1.0 0.00 0.00 0.00 3 1012.2
20260502041546 59 217 0.0 0.0 0.00 0.00 0.00 3 1012.2
20260502040042 59 239 0.0 1.0 0.00 0.00 0.00 3 1011.9
20260502040011 59 226 0.0 1.0 0.00 0.00 0.00 3 1011.8
20260502034519 60 187 0.0 3.0 0.00 0.00 0.00 3 1011.7
20260502033014 60 219 0.0 2.0 0.00 0.00 0.00 3 1011.5
20260502031553 61 211 0.0 0.0 0.00 0.00 0.00 3 1011.3
20260502030054 61 221 0.0 0.0 0.00 0.00 0.00 8 1011.3
20260502024528 61 214 0.0 3.0 0.00 0.00 0.00 20 1011.2
20260502023024 62 198 0.0 9.0 0.00 0.00 0.00 37 1011.1
20260502021508 63 204 0.0 6.0 0.00 0.00 0.00 46 1011.1
20260502020058 63 224 0.0 5.0 0.00 0.00 0.00 53 1011.1
20260502014535 64 173 0.0 3.0 0.00 0.00 0.00 53 1011.2